Regional Weather Roundup
Issued by NWS Jackson, KY

Home | Current Version | Previous Version | Graphics & Text | Print | Product List | Glossary On
Versions: 1 2 3 4 5 6 7 8 9 10 11 12 13 14 15 16 17 18 19 20 21 22 23 24 25 26 27 28 29 30 31 32 33 34 35 36 37 38 39 40 41 42 43 44 45 46 47 48 49 50
000
ASUS43 KJKL 311910
RWRJKL

EAST KENTUCKY HOURLY WEATHER ROUNDUP
NATIONAL WEATHER SERVICE JACKSON KY
300 PM EDT TUE MAY 31 2016

NOTE: "FAIR" INDICATES FEW OR NO CLOUDS BELOW 12,000 FEET WITH
NO SIGNIFICANT WEATHER AND/OR OBSTRUCTIONS TO VISIBILITY.

* THESE REPORTS ARE NOT UNDER NWS QUALITY CONTROL AND MAY NOT
  REPORT WEATHER SUCH AS PRECIPITATION AND FOG.

KYZ079-080-083-085-087-088-110-112-115-119-120-312000
...EASTERN KENTUCKY...

CITY           SKY/WX    TMP DP  RH WIND       PRES   REMARKS
JACKSON        SUNNY     83  58  42 CALM      30.00F
LONDON         MOSUNNY   83  59  44 N3        29.99F
SOMERSET*      CLOUDY    82  55  39 CALM      29.99F
MONTICELLO*    CLOUDY    82  65  56 N14       29.99F
WILLIAMSBURG*  PTCLDY    82  61  47 N5        29.98F
MIDDLESBORO*   MOSUNNY   84  65  51 CALM      29.98F
HARLAN APT*      N/A     86  59  39 NW6       29.99F
HAZARD APT*    PTCLDY    86  59  39 CALM      29.99F
BLACK MTN*       N/A     77  59  53 E3          N/A
PIKE CO APT*     N/A     83  62  49 N7        30.00F
BIG SANDY APT* PTCLDY    85  61  44 N3        30.00F
MOREHEAD APT*  PTCLDY    82  55  39 VRB5      30.02F
ASHLAND*       MOSUNNY   88  63  42 CALM      29.96F
$$

KYZ035-036-041-042-044-050-067-078-099-312000
...CENTRAL KENTUCKY...

CITY           SKY/WX    TMP DP  RH WIND       PRES   REMARKS
MT STERLING*   CLOUDY    84  59  42 E3        30.01F
FLEMING/MASON* CLOUDY   N/A N/A N/A E5        30.01S
DANVILLE*      PTSUNNY   81  61  50 CALM      30.02S
RICHMOND*      PTSUNNY   84  59  42 CALM      29.99S
LEXINGTON      CLOUDY    83  59  44 E9        30.00F
FRANKFORT      CLOUDY    85  57  38 SE7       29.99S
LOUISVILLE     CLOUDY    85  59  41 SE6       29.97F
LEBANON*         N/A     82  59  44 E3        30.00F
GLASGOW*       CLOUDY    85  58  39 CALM      29.97F
BOWLING GREEN  CLOUDY    85  64  49 VRB6      29.97F
$$

KYZ091>093-OHZ055-061-077-WVZ005-015-034-035-042-312000
...SOUTHERN OHIO/WEST VIRGINIA...

CITY           SKY/WX    TMP DP  RH WIND       PRES   REMARKS
COVINGTON      CLOUDY    84  59  42 S3        29.99S
COLUMBUS       CLOUDY    84  56  38 NW3       29.97F
DAYTON         PTSUNNY   87  54  32 VRB5      29.99F
WILMINGTON     CLOUDY    84  55  36 E3        29.99F
HUNTINGTON       N/A     86  56  35 NE10      29.98F
CHARLESTON       N/A     87  52  29 NE6       29.98F
PINEVILLE*       N/A     83  57  41 MISG      30.05F
BECKLEY          N/A     80  55  42 VRB6      30.04F
BLUEFIELD        N/A     78  57  48 MISG      30.06F
LOGAN CO APT*    N/A     84  59  42 NE6       30.01S
$$

VAZ002-007-008-TNZ017-027-036-066-071-312000
...SOUTHWEST VIRGINIA/EAST TENNESSEE...

CITY           SKY/WX    TMP DP  RH WIND       PRES   REMARKS
WISE*            N/A     81  50  34 CALM      30.07S
JONESVILLE*      N/A     86  59  39 CALM      30.00F
ABINGDON*        N/A     85  61  44 SE7       30.01F
BRISTOL        PTSUNNY   86  61  42 CALM      29.97F
SEVIERVILLE*     N/A     88  57  35 CALM      29.95F
KNOXVILLE      PTSUNNY   85  62  46 CALM      29.95F
OAK RIDGE      SUNNY     88  58  36 CALM      29.97F
CROSSVILLE     CLOUDY    81  57  43 CALM      30.02F
NASHVILLE      PTSUNNY   88  58  36 E3        29.96F
$$

...KEY TO REMARKS...
VSB - VISIBILITY IN MILES
WCI - WIND CHILL INDEX
HX  - HEAT INDEX

$$



USA.gov is the U.S. government's official web portal to all federal, state and local government web resources and services.